HULIANWANG DIGUI-169

导读

HULIANWANG DIGUI-169(NORAD编号69572,国际标识2026-137A)是中国2026年6月17日发射的低轨互联网卫星,由长征十二号运载火箭于海南商业航天发射场送入轨道,隶属于我国低轨宽带互联网星座组网序列。该卫星运行于倾角约50°的近圆轨道,当前轨道近地点约1070千米、远地点约1076千米,轨道周期约106.7分钟,在轨状态稳定。其主要承担全球宽带通信覆盖任务,可提供天地一体化网络接入服务,兼顾应急通信、偏远地区网络保障等功能,支撑我国低轨卫星互联网星座建设。

Basic Information
目录编号:
69572
目录名称:
HULIANWANG DIGUI-169
国际标识:
2026-137A
轨道中心:
EARTH
卫星名称:
HULIANWANG DIGUI-169
卫星全名:
HULIANWANG DIGUI-169
卫星状态:
在轨 (已飞行80 天)
发射日期:
2026-06-17 UTC
国别 :
中国 (CN)
星等 :
--
Orbit Information
数据来源 国际轨道数据
星历时间: 2026-09-04T23:05:44+0800
16小时前
查看轨道信息
半长轴: 7527.447km
偏心率: 0.0000055
轨道倾角: 50.004°
近地点辐角 290.846°
升交点赤经 311.224°
平近点角 69.240°
近地点: 1149.268km
远地点: 1149.352km
周期: 108.326分钟
每日圈数: 13.293253
Detailed Information
使用方式:
暂无
2D Orbit Map
3D Orbit Map
Orbit Altitude Analysis Chart
Orbit Inclination Analysis Chart
Orbit Comprehensive Analysis Chart
View Comprehensive Chart